[[{"header":{"parameterUnit":"m.s-1","parameterCategory":1,"la1":30.2991,"la2":30.254,"lo1":-89.0895,"lo2":-89.0444,"dy":0.0017,"dx":0.0017,"nx":28,"ny":28,"refTime":"2024-12-10T03:00:00:Z","depth":0,"parameterNumber":2,"parameterNumberName":"U-component_of_WINDS"},"data":[0,0,0,0,0,0,0,0,0,0,0,0,0,0,0,0,0,0,0,0,0,0,0,0,0,0,0,0,0,0,0,0,0,0,0,0,0,0,0,0,0,0,0,0,0,0,0,0,0,0,0,0,0,0,0,0,0,0,1.731,1.731,0,1.735,1.7351,1.7351,1.7308,1.7307,1.7305,1.7303,1.7348,1.7351,1.7353,0,0,0,0,0,0,0,0,0,0,0,0,0,1.7199,1.7201,1.731,1.7311,1.7311,1.735,1.7351,1.7352,1.7309,1.7307,1.7305,1.7303,1.7347,1.735,1.7354,0,0,0,0,0,0,0,0,0,0,0,0,0,1.7244,1.7202,1.731,1.7294,1.7293,1.735,1.7351,1.7352,1.7309,1.7307,1.7304,1.7302,1.7346,1.735,1.7354,1.7429,0,0,1.7367,1.7368,0,0,0,0,0,0,0,0,1.7242,1.7248,1.7296,1.7295,1.7294,1.7322,1.7328,1.7378,1.731,1.7303,1.7303,1.7301,1.7342,1.7346,1.7359,1.7432,1.7433,1.7367,1.737,1.7371,1.7372,0,0,0,0,0,0,0,1.7239,1.7246,1.7326,1.7297,1.7296,1.7286,1.729,1.7337,1.7336,1.7304,1.7301,1.7306,1.7341,1.7355,1.736,1.7434,1.7367,1.7371,1.7373,1.7375,1.7572,1.7575,0,0,0,0,0,0,1.7237,1.7244,1.7325,1.7327,1.7261,1.729,1.7294,1.7316,1.7335,1.7336,1.7308,1.7304,1.7349,1.7355,1.7361,1.7452,1.7371,1.7375,1.7377,1.7569,1.7573,1.7576,0,0,0,0,0,0,1.7235,1.7244,1.7323,1.7285,1.7294,1.7295,1.7319,1.7318,1.7332,1.7338,1.7338,1.7323,1.7348,1.7355,1.7413,1.7453,1.7377,1.7381,1.7566,1.757,1.7574,1.7634,0,0,0,0,0,0,1.7232,1.7244,1.7272,1.7286,1.7296,1.7374,1.7321,1.732,1.7339,1.7334,1.7352,1.7353,1.7346,1.7407,1.7417,1.7457,1.7384,1.7563,1.7568,1.7573,1.7628,1.764,1.7649,0,0,0,0,0,1.7228,1.7287,1.7273,1.7283,1.7331,1.7376,1.7382,1.7372,1.7342,1.7371,1.7375,1.7353,1.7446,1.7413,1.7424,1.7466,1.756,1.7566,1.7572,1.7624,1.7637,1.7649,0,0,0,0,0,0,1.7279,1.7289,1.7274,1.7339,1.7357,1.7368,1.7404,1.7386,1.7414,1.7408,1.7395,1.74,1.7461,1.7469,1.7432,1.7541,1.7499,1.7507,1.7534,1.7547,1.7557,1.7555,1.7387,0,0,0,0,0,1.7297,1.7332,1.7339,1.7396,1.7406,1.7404,1.7423,1.7413,1.7432,1.744,1.7448,1.7467,1.7501,1.7524,1.7556,1.7629,1.7633,1.7663,1.7673,1.7682,1.769,1.7731,1.7745,1.7596,1.7596,1.7596,0,0,1.7337,1.7346,1.7369,1.7407,1.742,1.7457,1.741,1.7452,1.748,1.7446,1.7501,1.7508,1.7529,1.7595,1.7624,1.7604,1.7732,1.769,1.7697,1.77,1.7739,1.7753,1.7766,1.76,1.76,1.7599,0,0,1.7428,1.7438,1.7488,1.7501,1.7521,1.7519,1.7531,1.7545,1.7548,1.7603,1.7579,1.7612,1.7671,1.7687,1.7703,1.7801,1.7782,1.7812,1.7867,1.7907,1.7919,1.7929,1.7966,1.7979,1.782,1.782,1.782,0,1.7475,1.7529,1.7515,1.7559,1.7577,1.7547,1.7598,1.7612,1.7641,1.7655,1.7631,1.7704,1.7716,1.7786,1.781,1.7823,1.7838,1.7811,1.7918,1.7928,1.7938,1.7973,1.7986,1.7823,1.7823,1.7823,1.7822,0,1.7587,1.7625,1.7663,1.7692,1.7714,1.7761,1.7755,1.7779,1.7768,1.7769,1.7826,1.7839,1.7874,1.7889,1.7878,1.7958,1.7945,1.7919,1.7877,1.7956,1.7989,1.8002,1.7829,1.7827,1.7826,1.7825,0,0,1.7712,1.7733,1.7747,1.776,1.778,1.781,1.7856,1.7888,1.791,1.7931,1.7971,1.8021,1.7998,1.8016,1.8007,1.8042,1.8121,1.8012,1.8013,1.8034,1.8212,1.8233,1.8248,1.8107,1.811,1.8112,1.8211,0,1.7806,1.7885,1.7874,1.7951,1.7987,1.7959,1.8,1.8017,1.8019,1.8051,1.8053,1.809,1.8055,1.8066,1.8099,1.8104,1.8157,1.8097,1.8146,1.8148,1.8144,1.8265,1.8287,1.8379,1.8223,1.8225,1.8227,0,1.7925,1.795,1.8031,1.8046,1.806,1.8097,1.8127,1.8157,1.8176,1.8175,1.8196,1.8181,1.8228,1.8184,1.825,1.8209,1.8229,1.8234,1.8237,1.8243,1.8194,1.8276,1.8408,1.8423,1.8247,1.8245,1.8244,0,1.8011,1.8065,1.812,1.8132,1.8151,1.8177,1.8186,1.8203,1.8224,1.825,1.8263,1.8295,1.8313,1.8338,1.8332,1.83,1.8401,1.8355,1.8403,1.8404,1.8428,1.8427,1.8567,1.8437,1.8437,1.8436,1.8436,0,1.8117,1.8168,1.8159,1.8194,1.825,1.8238,1.8294,1.83,1.8315,1.8351,1.8328,1.8363,1.8352,1.8386,1.8382,1.8439,1.8447,1.8449,1.8447,1.8452,1.8452,1.8466,1.846,1.844,1.8439,1.8438,1.8438,0,1.8224,1.8219,1.8279,1.8291,1.8295,1.8337,1.8348,1.8381,1.8381,1.8427,1.8437,1.8438,1.8477,1.8473,1.8517,1.8514,1.8585,1.8575,1.8579,1.8577,1.8627,1.8623,1.8783,1.8804,1.8658,1.8659,1.866,0,1.8293,1.8331,1.8348,1.837,1.8381,1.8416,1.8438,1.8427,1.845,1.8475,1.8505,1.8542,1.8571,1.8635,1.8641,1.8675,1.8667,1.872,1.8672,1.8675,1.867,1.8668,1.8673,1.873,1.8732,1.8733,1.8735,0,1.8416,1.8413,1.8443,1.8474,1.85,1.8524,1.8545,1.8565,1.8556,1.8583,1.8623,1.8645,1.869,1.8728,1.876,1.877,1.8752,1.8749,1.8763,1.8769,1.877,1.8772,1.8607,1.8746,1.8745,1.8744,1.8744,1.8743,1.8507,1.8541,1.8558,1.8594,1.8609,1.8629,1.8661,1.8666,1.8698,1.8734,1.8725,1.877,1.8789,1.8831,1.8844,1.888,1.8861,1.8879,1.8885,1.889,1.8897,1.8763,1.8885,1.8885,1.8885,1.8885,1.8884,0,1.8632,1.8641,1.8674,1.8705,1.8733,1.8712,1.8735,1.876,1.88,1.8819,1.8848,1.8894,1.8931,1.8939,1.8974,1.9001,1.8994,1.9011,1.901,1.9013,1.8911,1.8897,1.9017,1.9017,1.9017,1.9017,1.9017,1.9017,1.87,1.8756,1.8754,1.8818,1.8827,1.8871,1.8886,1.8906,1.8921,1.8974,1.9004,1.9008,1.9023,1.9059,1.9092,1.9094,1.9109,1.913,1.9128,1.9033,1.902,1.9008,1.8994,1.9133,1.9133,1.9228,1.9229,1.9229]},{"header":{"parameterUnit":"m.s-1","parameterCategory":1,"la1":30.2991,"la2":30.254,"lo1":-89.0895,"lo2":-89.0444,"dy":0.0017,"dx":0.0017,"nx":28,"ny":28,"refTime":"2024-12-10T03:00:00:Z","depth":0,"parameterNumber":3,"parameterNumberName":"V-component_of_WINDS"},"data":[0,0,0,0,0,0,0,0,0,0,0,0,0,0,0,0,0,0,0,0,0,0,0,0,0,0,0,0,0,0,0,0,0,0,0,0,0,0,0,0,0,0,0,0,0,0,0,0,0,0,0,0,0,0,0,0,0,0,4.3982,4.3983,0,4.4108,4.411,4.4111,4.4104,4.4102,4.41,4.4098,4.4227,4.4232,4.4237,0,0,0,0,0,0,0,0,0,0,0,0,0,4.3735,4.3739,4.3982,4.3984,4.3985,4.4108,4.411,4.4112,4.4104,4.4102,4.41,4.4098,4.4225,4.4231,4.4237,0,0,0,0,0,0,0,0,0,0,0,0,0,4.385,4.3741,4.3982,4.3996,4.3999,4.4108,4.411,4.4112,4.4105,4.4102,4.4099,4.4097,4.4223,4.423,4.4238,4.434,0,0,4.4261,4.4265,0,0,0,0,0,0,0,0,4.3843,4.3859,4.3993,4.3995,4.3999,4.4088,4.407,4.4188,4.4105,4.4064,4.4098,4.4095,4.4182,4.4193,4.4223,4.4346,4.4352,4.4262,4.4267,4.427,4.4272,0,0,0,0,0,0,0,4.3835,4.3853,4.4032,4.3994,4.3998,4.3997,4.401,4.4092,4.4137,4.4068,4.4068,4.4083,4.4184,4.4216,4.4226,4.4354,4.4262,4.4269,4.4273,4.4276,4.4569,4.4572,0,0,0,0,0,0,4.3824,4.3847,4.4028,4.4036,4.3913,4.4003,4.4018,4.4062,4.4136,4.4145,4.4085,4.4082,4.4204,4.4217,4.423,4.4357,4.427,4.4277,4.4282,4.4566,4.457,4.4573,0,0,0,0,0,0,4.3819,4.384,4.4023,4.3941,4.3964,4.401,4.4059,4.4066,4.4098,4.4149,4.4157,4.4109,4.4202,4.422,4.4314,4.4361,4.4281,4.4288,4.4562,4.4567,4.4572,4.461,0,0,0,0,0,0,4.3812,4.3838,4.3878,4.3942,4.3969,4.4104,4.4062,4.407,4.4111,4.4108,4.4174,4.4183,4.4201,4.4302,4.4321,4.4371,4.4294,4.4558,4.4565,4.457,4.4605,4.4616,4.4625,0,0,0,0,0,4.3803,4.3883,4.388,4.3902,4.4019,4.4107,4.4122,4.4142,4.4115,4.4155,4.4189,4.4181,4.4353,4.4312,4.4333,4.4386,4.4555,4.4563,4.457,4.46,4.4614,4.4625,0,0,0,0,0,0,4.3822,4.3891,4.3889,4.3992,4.4044,4.4105,4.4157,4.4155,4.4215,4.421,4.4232,4.4247,4.4342,4.4373,4.4326,4.449,4.445,4.4462,4.4467,4.4479,4.4489,4.4481,4.43,0,0,0,0,0,4.3838,4.3904,4.3961,4.4046,4.4072,4.411,4.4149,4.416,4.4215,4.4237,4.4277,4.4329,4.4396,4.4439,4.4502,4.4609,4.4624,4.4655,4.4665,4.4673,4.4684,4.4744,4.476,4.4597,4.4597,4.4597,0,0,4.3872,4.3918,4.3958,4.4051,4.4093,4.4161,4.4129,4.4201,4.4253,4.4247,4.434,4.4371,4.4431,4.4533,4.4579,4.4561,4.4732,4.4682,4.4688,4.4695,4.4753,4.4769,4.4782,4.4602,4.4601,4.46,0,0,4.397,4.4011,4.4088,4.413,4.4194,4.4218,4.4237,4.4299,4.432,4.4413,4.4411,4.4472,4.4585,4.4629,4.4666,4.4782,4.4777,4.4801,4.4855,4.4913,4.4926,4.4938,4.4981,4.4997,4.4811,4.4811,4.4811,0,4.4005,4.4108,4.4127,4.4202,4.4243,4.4242,4.4321,4.4361,4.4442,4.4471,4.4449,4.4593,4.4633,4.4746,4.4774,4.4803,4.4826,4.4795,4.4923,4.4935,4.4946,4.4988,4.5004,4.4814,4.4814,4.4813,4.4813,0,4.4148,4.4219,4.4274,4.4354,4.4401,4.4477,4.4509,4.4554,4.4561,4.4589,4.4684,4.4732,4.4807,4.4834,4.4841,4.4948,4.4935,4.4918,4.488,4.4964,4.5004,4.5019,4.4818,4.4817,4.4816,4.4815,0,0,4.4262,4.4352,4.4372,4.4409,4.448,4.4535,4.4611,4.4685,4.4725,4.478,4.4846,4.4942,4.4928,4.497,4.4981,4.5033,4.5124,4.501,4.5011,4.5031,4.5248,4.5263,4.5281,4.5121,4.5124,4.5127,4.5244,0,4.4369,4.4505,4.4526,4.4646,4.4713,4.4714,4.478,4.4831,4.4859,4.492,4.4949,4.5018,4.4992,4.5018,4.5069,4.5103,4.5169,4.5094,4.5184,4.5187,4.5171,4.5301,4.5317,4.5425,4.5259,4.5262,4.5264,0,4.4512,4.4573,4.4701,4.4764,4.4793,4.4853,4.4923,4.4981,4.5039,4.5055,4.5103,4.5109,4.5189,4.5145,4.5256,4.5205,4.5243,4.5265,4.527,4.5281,4.5232,4.5318,4.546,4.5477,4.5288,4.5286,4.5284,0,4.4586,4.4699,4.4791,4.4822,4.4898,4.494,4.4973,4.5028,4.5072,4.5133,4.5162,4.523,4.5269,4.5322,4.5347,4.5312,4.5457,4.5415,4.5474,4.5474,4.5506,4.5504,4.5659,4.5526,4.5526,4.5526,4.5525,0,4.4704,4.4783,4.4826,4.4882,4.4971,4.4993,4.508,4.5112,4.5161,4.5225,4.5228,4.5287,4.5315,4.5378,4.5398,4.5488,4.5504,4.5521,4.5525,4.5522,4.552,4.5549,4.5543,4.553,4.5529,4.5528,4.5528,0,4.4802,4.4834,4.4934,4.4998,4.5016,4.5078,4.5133,4.5188,4.5215,4.5295,4.5315,4.5357,4.5433,4.5462,4.5553,4.5566,4.5671,4.5669,4.5653,4.5655,4.5713,4.5708,4.5893,4.5919,4.5767,4.5768,4.5769,0,4.4877,4.4938,4.5008,4.5052,4.5087,4.5155,4.5201,4.5225,4.5272,4.5343,4.539,4.5465,4.5527,4.5647,4.5686,4.5756,4.5757,4.5817,4.5767,4.5763,4.5761,4.5758,4.5765,4.5826,4.5828,4.5829,4.583,0,4.5007,4.502,4.5085,4.5157,4.5211,4.5268,4.5323,4.5358,4.5391,4.5444,4.5521,4.5569,4.5663,4.5739,4.5811,4.5845,4.5845,4.5845,4.5863,4.5862,4.5851,4.586,4.568,4.5841,4.584,4.584,4.5839,4.5838,4.5098,4.5153,4.5212,4.5285,4.533,4.5382,4.5438,4.5472,4.5538,4.5617,4.5627,4.5711,4.5768,4.5866,4.5903,4.5969,4.5953,4.5978,4.5985,4.5992,4.5998,4.5838,4.5982,4.5982,4.5981,4.5981,4.5981,0,4.5231,4.5269,4.5336,4.5415,4.5472,4.5466,4.5528,4.5577,4.5651,4.5704,4.5766,4.5856,4.5929,4.5974,4.6047,4.6092,4.6093,4.6111,4.6109,4.6117,4.6006,4.5984,4.6108,4.6108,4.6108,4.6108,4.6108,4.6108,4.5307,4.5401,4.5421,4.5538,4.5575,4.5658,4.5694,4.5743,4.5786,4.5887,4.5948,4.5977,4.6028,4.6106,4.6173,4.6184,4.6212,4.6232,4.6242,4.6138,4.6125,4.6112,4.6092,4.6237,4.6237,4.6348,4.6349,4.635]}]]